Location: Delettes
(50.6178°N, 2.2123°E)
Time: 21:59:33
(UTC+00:00)

Cosmos 1943 Rocket - Pass Details

Date: 27 February 2020
Orbit: 814 x 842 km, 71.0° (Epoch: 29 March)

Event Time Altitude Azimuth Distance (km) Brightness Sun altitude
Rises 19:37:59 0° 258° (WSW) 3,358 6.4 -21.2°
Reaches altitude 10° 19:41:03 10° 275° (W) 2,423 5.7 -21.7°
Maximum altitude 19:45:09 21° 323° (NW) 1,786 4.5 -22.3°
Drops below altitude 10° 19:49:16 10° 11° (N) 2,420 4.6 -23.0°
Sets 19:52:20 0° 28° (NNE) 3,353 5.2 -23.4°
